This is the latest recevied weather packets stored in our database for station/object LU8FCJ-5. If no packets are shown the sender has not sent any weather packets the latest 10 day(s).
| Time | Temp. | Humidity | Pressure | Rain* | Wind** | Luminosity | Snow |
|---|---|---|---|---|---|---|---|
| 1777580022 | 24.44° C | 54% | 1008.8 hPa | 0 mm | - | - | - |
| 1777579711 | 24.44° C | 54% | 1009 hPa | 0 mm | - | - | - |
| 1777579403 | 24.44° C | 53% | 1009.1 hPa | 0 mm | - | - | - |
| 1777579091 | 18.89° C | 94% | 1009.2 hPa | 0 mm | - | - | - |
| 1777578781 | 25° C | 52% | 1009.1 hPa | 0 mm | - | - | - |
| 1777578471 | 25° C | 53% | 1009.3 hPa | 0 mm | - | - | - |
| 1777578161 | 25° C | 53% | 1009.5 hPa | 0 mm | - | - | - |
| 1777577851 | 25° C | 53% | 1009.5 hPa | 0 mm | - | - | - |
| 1777577542 | 25° C | 52% | 1009.3 hPa | 0 mm | - | - | - |
| 1777577231 | 25° C | 52% | 1009.3 hPa | 0 mm | - | - | - |
| 1777576921 | 25° C | 52% | 1009.8 hPa | 0 mm | - | - | - |
| 1777576611 | 25° C | 52% | 1009.6 hPa | 0 mm | - | - | - |
| 1777576300 | 25.56° C | 51% | 1009.7 hPa | 0 mm | - | - | - |
| 1777575990 | 25° C | 51% | 1009.8 hPa | 0 mm | - | - | - |
| 1777575680 | 25° C | 52% | 1009.9 hPa | 0 mm | - | - | - |
| 1777575369 | 25° C | 51% | 1010 hPa | 0 mm | - | - | - |
| 1777575059 | 25.56° C | 51% | 1010.1 hPa | 0 mm | - | - | - |
| 1777574754 | 25° C | 50% | 1010 hPa | 0 mm | - | - | - |
| 1777574439 | 25.56° C | 50% | 1010.2 hPa | 0 mm | - | - | - |
| 1777574130 | 25.56° C | 50% | 1010.2 hPa | 0 mm | - | - | - |
| 1777573819 | 25.56° C | 50% | 1010.2 hPa | 0 mm | - | - | - |
| 1777573508 | 25.56° C | 49% | 1010.4 hPa | 0 mm | - | - | - |
| 1777573199 | 26.11° C | 49% | 1010.6 hPa | 0 mm | - | - | - |
| 1777572887 | 25.56° C | 50% | 1010.3 hPa | 0 mm | - | - | - |
| 1777572578 | 25.56° C | 49% | 1010.7 hPa | 0 mm | - | - | - |
* Rain latest hour (hover to see other rain measurements)
** Current wind speed in m/s (hover to see current wind gust speed)